Time,TemperatureF,DewpointF,PressureIn,WindDirection,WindDirectionDegrees,WindSpeedMPH,WindSpeedGustMPH,Humidity,HourlyPrecipIn,Conditions,Clouds,dailyrainin,SoftwareType,DateUTC
2013-03-18 00:08:00,66.0,62.0,29.75,SE,134,0.0,2.0,87,0.00,,,0.00,weatherlink.com 1.10,2013-03-18 05:08:00,
2013-03-18 00:23:00,65.8,62.0,29.75,SE,134,0.0,2.0,88,0.00,,,0.00,weatherlink.com 1.10,2013-03-18 05:23:00,
2013-03-18 00:38:00,65.6,62.0,29.74,SE,134,0.0,1.0,89,0.00,,,0.00,weatherlink.com 1.10,2013-03-18 05:38:00,
2013-03-18 00:53:00,66.0,63.0,29.75,SSE,153,0.0,2.0,89,0.00,,,0.00,weatherlink.com 1.10,2013-03-18 05:53:00,
2013-03-18 01:08:00,66.3,63.0,29.75,SSE,152,0.0,3.0,89,0.00,,,0.00,weatherlink.com 1.10,2013-03-18 06:08:00,
2013-03-18 01:23:00,66.6,63.0,29.75,SSE,152,0.0,1.0,88,0.00,,,0.00,weatherlink.com 1.10,2013-03-18 06:23:00,
2013-03-18 01:38:00,66.6,63.0,29.76,SSE,152,0.0,1.0,88,0.00,,,0.00,weatherlink.com 1.10,2013-03-18 06:38:00,
2013-03-18 01:53:00,66.3,63.0,29.75,SSE,151,0.0,0.0,88,0.00,,,0.00,weatherlink.com 1.10,2013-03-18 06:53:00,
2013-03-18 02:08:00,65.7,62.0,29.75,SSE,151,0.0,1.0,88,0.00,,,0.00,weatherlink.com 1.10,2013-03-18 07:08:00,
2013-03-18 02:23:00,65.3,62.0,29.75,SSE,151,0.0,0.0,88,0.00,,,0.00,weatherlink.com 1.10,2013-03-18 07:23:00,
2013-03-18 02:38:00,64.3,61.0,29.75,SSE,151,0.0,0.0,88,0.00,,,0.00,weatherlink.com 1.10,2013-03-18 07:38:00,
2013-03-18 02:53:00,64.1,61.0,29.75,SSE,151,0.0,0.0,89,0.00,,,0.00,weatherlink.com 1.10,2013-03-18 07:53:00,
2013-03-18 03:08:00,64.1,61.0,29.74,SSE,152,0.0,0.0,89,0.00,,,0.00,weatherlink.com 1.10,2013-03-18 08:08:00,
2013-03-18 03:23:00,64.4,62.0,29.74,SSE,152,0.0,0.0,90,0.00,,,0.00,weatherlink.com 1.10,2013-03-18 08:23:00,
2013-03-18 03:38:00,65.1,62.0,29.75,SSE,152,0.0,2.0,89,0.00,,,0.00,weatherlink.com 1.10,2013-03-18 08:38:00,
2013-03-18 03:53:00,65.4,62.0,29.75,SSE,152,0.0,1.0,89,0.00,,,0.00,weatherlink.com 1.10,2013-03-18 08:53:00,
2013-03-18 04:08:00,65.6,62.0,29.75,SSE,153,0.0,1.0,89,0.00,,,0.00,weatherlink.com 1.10,2013-03-18 09:08:00,
2013-03-18 04:23:00,65.7,62.0,29.75,SSW,192,0.0,4.0,89,0.00,,,0.00,weatherlink.com 1.10,2013-03-18 09:23:00,
2013-03-18 04:38:00,65.8,63.0,29.75,SSW,192,0.0,1.0,89,0.00,,,0.00,weatherlink.com 1.10,2013-03-18 09:38:00,
2013-03-18 04:53:00,65.9,63.0,29.76,SSW,192,0.0,0.0,89,0.00,,,0.00,weatherlink.com 1.10,2013-03-18 09:53:00,
2013-03-18 05:08:00,65.9,63.0,29.77,SSW,192,0.0,0.0,89,0.00,,,0.00,weatherlink.com 1.10,2013-03-18 10:08:00,
2013-03-18 05:23:00,65.7,62.0,29.77,SSW,192,0.0,0.0,89,0.00,,,0.00,weatherlink.com 1.10,2013-03-18 10:23:00,
2013-03-18 05:38:00,65.7,62.0,29.76,SSW,192,0.0,1.0,89,0.00,,,0.00,weatherlink.com 1.10,2013-03-18 10:38:00,
2013-03-18 05:53:00,66.0,63.0,29.77,SSW,192,0.0,1.0,89,0.00,,,0.00,weatherlink.com 1.10,2013-03-18 10:53:00,
2013-03-18 06:08:00,66.3,63.0,29.77,SSW,192,0.0,2.0,89,0.00,,,0.00,weatherlink.com 1.10,2013-03-18 11:08:00,
2013-03-18 06:23:00,66.3,63.0,29.77,SSW,192,0.0,0.0,89,0.00,,,0.00,weatherlink.com 1.10,2013-03-18 11:23:00,
2013-03-18 06:38:00,66.3,63.0,29.78,SSW,192,0.0,2.0,89,0.00,,,0.00,weatherlink.com 1.10,2013-03-18 11:38:00,
2013-03-18 06:53:00,66.3,63.0,29.78,SSW,192,0.0,1.0,89,0.00,,,0.00,weatherlink.com 1.10,2013-03-18 11:53:00,
2013-03-18 07:08:00,66.3,63.0,29.79,SSW,192,0.0,2.0,89,0.00,,,0.00,weatherlink.com 1.10,2013-03-18 12:08:00,
2013-03-18 07:23:00,66.5,63.0,29.79,SSW,192,0.0,2.0,89,0.00,,,0.00,weatherlink.com 1.10,2013-03-18 12:23:00,
2013-03-18 07:38:00,66.5,63.0,29.80,SSW,192,0.0,1.0,88,0.00,,,0.00,weatherlink.com 1.10,2013-03-18 12:38:00,
2013-03-18 07:53:00,66.4,63.0,29.80,SSW,192,0.0,1.0,89,0.00,,,0.00,weatherlink.com 1.10,2013-03-18 12:53:00,
2013-03-18 08:08:00,66.6,63.0,29.80,SSW,192,0.0,2.0,89,0.00,,,0.00,weatherlink.com 1.10,2013-03-18 13:08:00,
2013-03-18 08:23:00,67.0,64.0,29.80,SSW,192,0.0,2.0,89,0.00,,,0.00,weatherlink.com 1.10,2013-03-18 13:23:00,
2013-03-18 08:38:00,67.4,64.0,29.80,SSW,192,0.0,2.0,89,0.00,,,0.00,weatherlink.com 1.10,2013-03-18 13:38:00,
2013-03-18 08:54:00,68.0,64.0,29.81,SSW,197,0.0,2.0,88,0.00,,,0.00,weatherlink.com 1.10,2013-03-18 13:54:00,
2013-03-18 09:09:00,69.0,65.0,29.81,SSW,196,0.0,2.0,88,0.00,,,0.00,weatherlink.com 1.10,2013-03-18 14:09:00,
2013-03-18 09:24:00,70.2,66.0,29.80,SSW,209,0.0,4.0,86,0.00,,,0.00,weatherlink.com 1.10,2013-03-18 14:24:00,
2013-03-18 09:39:00,70.8,66.0,29.80,South,173,0.0,6.0,85,0.00,,,0.00,weatherlink.com 1.10,2013-03-18 14:39:00,
2013-03-18 09:54:00,71.3,66.0,29.80,SSE,153,0.0,7.0,83,0.00,,,0.00,weatherlink.com 1.10,2013-03-18 14:54:00,
2013-03-18 10:09:00,72.8,67.0,29.79,SSE,156,0.0,4.0,81,0.00,,,0.00,weatherlink.com 1.10,2013-03-18 15:09:00,
2013-03-18 10:24:00,73.8,65.0,29.79,West,262,1.0,5.0,75,0.00,,,0.00,weatherlink.com 1.10,2013-03-18 15:24:00,
2013-03-18 10:39:00,75.5,65.0,29.79,West,267,0.0,5.0,71,0.00,,,0.00,weatherlink.com 1.10,2013-03-18 15:39:00,
2013-03-18 10:54:00,75.9,65.0,29.80,WSW,255,0.0,6.0,70,0.00,,,0.00,weatherlink.com 1.10,2013-03-18 15:54:00,
2013-03-18 11:09:00,76.7,65.0,29.80,SE,124,1.0,6.0,68,0.00,,,0.00,weatherlink.com 1.10,2013-03-18 16:09:00,
2013-03-18 11:24:00,78.3,66.0,29.80,South,186,0.0,7.0,66,0.00,,,0.00,weatherlink.com 1.10,2013-03-18 16:24:00,
2013-03-18 11:39:00,78.7,65.0,29.80,SW,216,3.0,5.0,64,0.00,,,0.00,weatherlink.com 1.10,2013-03-18 16:39:00,
2013-03-18 11:54:00,80.1,65.0,29.80,WSW,252,0.0,9.0,61,0.00,,,0.00,weatherlink.com 1.10,2013-03-18 16:54:00,
2013-03-18 12:09:00,80.5,66.0,29.80,SE,126,0.0,5.0,61,0.00,,,0.00,weatherlink.com 1.10,2013-03-18 17:09:00,
2013-03-18 12:24:00,80.6,65.0,29.81,North,1,0.0,6.0,60,0.00,,,0.00,weatherlink.com 1.10,2013-03-18 17:24:00,
2013-03-18 12:39:00,81.3,66.0,29.80,WSW,253,0.0,9.0,59,0.00,,,0.00,weatherlink.com 1.10,2013-03-18 17:39:00,
2013-03-18 12:54:00,82.6,66.0,29.80,West,267,4.0,6.0,57,0.00,,,0.00,weatherlink.com 1.10,2013-03-18 17:54:00,
2013-03-18 13:09:00,82.3,65.0,29.79,ENE,65,3.0,6.0,56,0.00,,,0.00,weatherlink.com 1.10,2013-03-18 18:09:00,
2013-03-18 13:24:00,82.3,65.0,29.79,South,184,0.0,8.0,56,0.00,,,0.00,weatherlink.com 1.10,2013-03-18 18:24:00,
2013-03-18 13:54:00,82.8,65.0,29.78,West,261,0.0,8.0,55,0.00,,,0.00,weatherlink.com 1.10,2013-03-18 18:54:00,
2013-03-18 14:09:00,82.5,64.0,29.77,NNW,339,7.0,8.0,54,0.00,,,0.00,weatherlink.com 1.10,2013-03-18 19:09:00,
2013-03-18 14:24:00,82.7,64.0,29.77,NNE,28,2.0,5.0,53,0.00,,,0.00,weatherlink.com 1.10,2013-03-18 19:24:00,
2013-03-18 14:39:00,83.7,65.0,29.76,NW,326,0.0,5.0,53,0.00,,,0.00,weatherlink.com 1.10,2013-03-18 19:39:00,
2013-03-18 14:54:00,84.6,64.0,29.75,ESE,108,0.0,5.0,51,0.00,,,0.00,weatherlink.com 1.10,2013-03-18 19:54:00,
2013-03-18 15:09:00,85.2,63.0,29.75,NNW,345,3.0,4.0,47,0.00,,,0.00,weatherlink.com 1.10,2013-03-18 20:09:00,
2013-03-18 15:24:00,83.4,62.0,29.75,SSW,212,0.0,10.0,49,0.00,,,0.00,weatherlink.com 1.10,2013-03-18 20:24:00,
2013-03-18 15:39:00,83.2,62.0,29.75,WNW,303,0.0,7.0,49,0.00,,,0.00,weatherlink.com 1.10,2013-03-18 20:39:00,
2013-03-18 15:54:00,84.2,62.0,29.75,ESE,117,0.0,11.0,48,0.00,,,0.00,weatherlink.com 1.10,2013-03-18 20:54:00,
2013-03-18 16:10:00,84.6,63.0,29.75,WNW,294,0.0,4.0,49,0.00,,,0.00,weatherlink.com 1.10,2013-03-18 21:10:00,
2013-03-18 16:24:00,83.5,62.0,29.75,West,271,0.0,4.0,49,0.00,,,0.00,weatherlink.com 1.10,2013-03-18 21:24:00,
2013-03-18 16:40:00,84.6,63.0,29.75,NNW,331,0.0,10.0,48,0.00,,,0.00,weatherlink.com 1.10,2013-03-18 21:40:00,
2013-03-18 16:55:00,84.5,63.0,29.75,NNE,26,0.0,10.0,49,0.00,,,0.00,weatherlink.com 1.10,2013-03-18 21:55:00,
2013-03-18 17:10:00,84.5,61.0,29.75,NW,321,8.0,8.0,46,0.00,,,0.00,weatherlink.com 1.10,2013-03-18 22:10:00,
2013-03-18 17:25:00,83.9,61.0,29.75,West,266,0.0,6.0,46,0.00,,,0.00,weatherlink.com 1.10,2013-03-18 22:25:00,
2013-03-18 17:40:00,83.5,61.0,29.75,WNW,284,4.0,9.0,47,0.00,,,0.00,weatherlink.com 1.10,2013-03-18 22:40:00,
2013-03-18 17:55:00,83.7,60.0,29.76,NW,306,0.0,5.0,45,0.00,,,0.00,weatherlink.com 1.10,2013-03-18 22:55:00,
2013-03-18 18:10:00,83.0,60.0,29.76,NW,307,0.0,4.0,46,0.00,,,0.00,weatherlink.com 1.10,2013-03-18 23:10:00,
2013-03-18 18:25:00,81.5,61.0,29.77,WNW,282,0.0,1.0,50,0.00,,,0.00,weatherlink.com 1.10,2013-03-18 23:25:00,
2013-03-18 18:40:00,81.1,62.0,29.77,WNW,283,0.0,1.0,52,0.00,,,0.00,weatherlink.com 1.10,2013-03-18 23:40:00,
2013-03-18 18:55:00,80.2,61.0,29.78,WNW,282,0.0,1.0,52,0.00,,,0.00,weatherlink.com 1.10,2013-03-18 23:55:00,
2013-03-18 19:10:00,78.7,63.0,29.79,WNW,300,0.0,10.0,58,0.00,,,0.00,weatherlink.com 1.10,2013-03-19 00:10:00,
2013-03-18 19:40:00,76.4,62.0,29.82,West,269,3.0,7.0,62,0.00,,,0.00,weatherlink.com 1.10,2013-03-19 00:40:00,
2013-03-18 19:55:00,75.4,61.0,29.83,West,271,4.0,8.0,61,0.00,,,0.00,weatherlink.com 1.10,2013-03-19 00:55:00,
2013-03-18 20:10:00,74.2,61.0,29.84,North,350,1.0,7.0,63,0.00,,,0.00,weatherlink.com 1.10,2013-03-19 01:10:00,
2013-03-18 20:25:00,73.3,60.0,29.86,NNE,31,0.0,10.0,63,0.00,,,0.00,weatherlink.com 1.10,2013-03-19 01:25:00,
2013-03-18 20:40:00,72.6,59.0,29.86,WNW,286,5.0,9.0,63,0.00,,,0.00,weatherlink.com 1.10,2013-03-19 01:40:00,
2013-03-18 20:55:00,71.8,58.0,29.88,WNW,299,3.0,8.0,63,0.00,,,0.00,weatherlink.com 1.10,2013-03-19 01:55:00,
2013-03-18 21:10:00,71.2,58.0,29.88,NNW,328,2.0,7.0,64,0.00,,,0.00,weatherlink.com 1.10,2013-03-19 02:10:00,
2013-03-18 21:25:00,70.6,58.0,29.89,WNW,288,3.0,5.0,64,0.00,,,0.00,weatherlink.com 1.10,2013-03-19 02:25:00,
2013-03-18 21:40:00,70.1,57.0,29.90,WNW,282,0.0,8.0,63,0.00,,,0.00,weatherlink.com 1.10,2013-03-19 02:40:00,
2013-03-18 21:55:00,69.3,56.0,29.91,West,269,0.0,8.0,63,0.00,,,0.00,weatherlink.com 1.10,2013-03-19 02:55:00,
2013-03-18 22:10:00,68.6,55.0,29.91,NW,309,3.0,6.0,62,0.00,,,0.00,weatherlink.com 1.10,2013-03-19 03:10:00,
2013-03-18 22:25:00,67.9,54.0,29.92,WNW,301,3.0,9.0,62,0.00,,,0.00,weatherlink.com 1.10,2013-03-19 03:25:00,
2013-03-18 22:40:00,67.3,54.0,29.93,North,1,1.0,6.0,62,0.00,,,0.00,weatherlink.com 1.10,2013-03-19 03:40:00,
2013-03-18 22:55:00,66.5,53.0,29.93,WNW,293,1.0,3.0,63,0.00,,,0.00,weatherlink.com 1.10,2013-03-19 03:55:00,
2013-03-18 23:10:00,66.2,53.0,29.94,North,360,1.0,6.0,63,0.00,,,0.00,weatherlink.com 1.10,2013-03-19 04:10:00,
2013-03-18 23:25:00,65.4,53.0,29.94,NW,308,2.0,5.0,65,0.00,,,0.00,weatherlink.com 1.10,2013-03-19 04:25:00,
2013-03-18 23:40:00,64.8,54.0,29.95,West,280,0.0,5.0,67,0.00,,,0.00,weatherlink.com 1.10,2013-03-19 04:40:00,
2013-03-18 23:55:00,64.3,53.0,29.95,West,259,0.0,3.0,68,0.00,,,0.00,weatherlink.com 1.10,2013-03-19 04:55:00,